Regional Weather Roundup
Issued by NWS

Home | Current Version | Previous Version | Text Only | Print | Product List | Glossary Off
Versions: 1 2 3 4 5 6 7 8 9 10 11 12 13 14 15 16 17 18 19 20 21 22 23 24 25 26 27 28 29 30 31 32 33 34 35 36 37 38 39 40 41 42 43 44 45 46 47 48 49 50

984
ASUS45 KBOU 252307
RWRCO

WEATHER ROUNDUP FOR COLORADO
NATIONAL WEATHER SERVICE DENVER/BOULDER CO
500 PM MDT TUE APR 25 2017

NOTE: "FAIR" INDICATES FEW OR NO CLOUDS BELOW 12000 FEET WITH NO
SIGNIFICANT WEATHER AND/OR OBSTRUCTIONS TO VISIBILITY.

COZ001>005-013-030-031-260000-
...NORTHWEST COLORADO...

CITY           SKY/WX    TMP DP  RH WIND       PRES   REMARKS
CRAIG          CLOUDY    38  34  85 SW10      29.74S
HAYDEN         FAIR      36  30  80 S6        29.74R
MEEKER         PTSUNNY   42  35  76 E6        29.75R
MOUNT WERNER   NOT AVBL
STEAMBOAT SPGS CLOUDY    33  32  95 E5        29.74R WCI  28
WALDEN           N/A     34  27  75 N17       29.75R WCI  23
$$

COZ006>008-011-260000-
...WEST CENTRAL VALLEYS...

CITY           SKY/WX    TMP DP  RH WIND       PRES   REMARKS
GRAND JUNCTION RAIN      43  38  82 N18G40    29.76R
MONTROSE       CLOUDY    51  26  37 N12G26    29.72S
EAGLE          PTSUNNY   43  28  56 E7        29.75R
RIFLE          FAIR      46  32  58 W9        29.71F
DELTA          FAIR      50  36  58 E23       29.71R
NUCLA          FAIR      46  32  57 S7        29.76S
$$

COZ017>023-064>068-260000-
...SOUTHWEST COLORADO...

CITY           SKY/WX    TMP DP  RH WIND       PRES   REMARKS
DURANGO        CLOUDY    43  24  47 SW12      29.65S
CORTEZ         PTSUNNY   51  26  37 W10       29.69F
PAGOSA SPRINGS CLOUDY    46  23  39 CALM      29.64S
TELLURIDE      HVY SNOW  28  26  92 W3        29.80R VSB 1/4
WOLF CREEK PAS FOG       23  23 100 CALM      29.77S VSB 1/4
$$

COZ009-010-012-014-032>034-037-058>063-260000-
...CENTRAL COLORADO...

CITY           SKY/WX    TMP DP  RH WIND       PRES   REMARKS
ASPEN          CLOUDY    38  30  73 N10       29.72R
BUENA VISTA    PTSUNNY   45  17  32 NW28G35   29.61R
COPPER MTN     CLOUDY    25  19  80 MISG      29.76R
BERTHOUD PASS  CLOUDY    16   5  62 NW23G36   29.74S WCI  -2
COTTONWOOD PAS PTSUNNY   43  21  42 NW14G23   29.65S
GUNNISON       LGT SNOW  34  30  85 NW16      29.72R FOG     WCI  24
KREMMLING      FAIR      48  27  43 N12       29.72R
LEADVILLE      CLOUDY    31  20  63 N20G28    29.70R WCI  19
MONARCH PASS   CLOUDY    25  21  86 W31       29.82S WCI   8
SALIDA         CLOUDY    51  17  26 CALM      29.67S
SUNLIGHT       CLOUDY    25  21  86 MISG      29.82S
WILKERSON PASS FOG       28  27  93 NE10      29.73S VSB 1   WCI  19
$$

COZ069>075-260000-
...SAN LUIS VALLEY/SANGRE DE CRISTO MOUNTAINS...

CITY           SKY/WX    TMP DP  RH WIND       PRES   REMARKS
ALAMOSA        CLOUDY    40  37  89 N13       29.64R
LA VETA PASS   LGT SNOW  30  28  93 W12G18    29.79R WCI  21
SAGUACHE       PTSUNNY   43  21  42 NW25      29.62R
$$

COZ035-036-038>040-260000-
...NORTHERN COLORADO FRONT RANGE...

CITY           SKY/WX    TMP DP  RH WIND       PRES   REMARKS
DENVER INTL AP PTSUNNY   47  38  71 SE3       29.60R
DMNS CITY PARK   N/A     50  29  43 E16       29.62R
AURORA         PTSUNNY   47  29  48 SE10      29.62R
FRONT RANGE AP CLOUDY    50  32  50 MISG      29.61F
ERIE MUNI ARPT FAIR      54  31  42 S7        29.61R
BOULDER MUN AP FAIR      52  32  46 SE7       29.60R
CENTENNIAL     CLOUDY    43  37  79 E13       29.63R
BROOMFIELD     NOT AVBL
FORT COLLINS   FAIR      50  33  52 N18G26    29.62R
LONGMONT       PTSUNNY   58  30  33 SE5       29.62R
$$

COZ041-046-047-076>085-087-088-260000-
...PIKES PEAK/PALMER DIVIDE AND SOUTHERN FOOTHILLS...

CITY           SKY/WX    TMP DP  RH WIND       PRES   REMARKS
COLO. SPRINGS  LGT RAIN  41  38  89 CALM      29.64S FOG
A. F. ACADEMY  DRIZZLE   40  35  80 SW3       29.63S
SCHRIEVER AFB  RAIN      40  35  82 N9G16     29.64R
ELLICOTT       NOT AVBL
FALCON         LGT RAIN  39  36  87 NE5       29.65S
FORT CARSON    NOT AVBL
LIMON          CLOUDY    43  38  82 S8        29.63R
MONUMENT HILL  PTSUNNY   37  32  81 SE8       29.66R
TRINIDAD       CLOUDY    46  40  79 NE10      29.58S
$$

COZ042>045-048>051-090-091-260000-
...NORTHEAST COLORADO...

CITY           SKY/WX    TMP DP  RH WIND       PRES   REMARKS
GREELEY ARPT   FAIR      52  34  50 N30G38    29.61R
AKRON          FAIR      54  38  54 N24G33    29.57R
BURLINGTON     NOT AVBL
WRAY           NOT AVBL
STERLING       FAIR      52  43  71 NE16G23   29.59R
HOLYOKE        PTSUNNY   54  41  62 NE21G26   29.61R
FORT MORGAN    CLOUDY    54  36  52 N24G30    29.61R
$$

COZ086-089-092>099-260000-
...SOUTHEAST COLORADO...

CITY           SKY/WX    TMP DP  RH WIND       PRES   REMARKS
PUEBLO         RAIN      47  43  86 NE13      29.62R FOG
LA JUNTA       RAIN      50  45  83 NW14      29.58R
LAMAR          CLOUDY    58  38  47 E12       29.52R
SPRINGFIELD      N/A     57  40  52 NE16G22   29.51S
$$




USA.gov is the U.S. government's official web portal to all federal, state and local government web resources and services.